WJA891 CYDF-CYHZ

Flight info

Callsign WJA891
Flight time 0h 58m
Altitude 34000
Route CYDF1 CAYLY CABOT5
Aircraft B738/M-SDE2E3FGHIRWXY/LB1

Departure

Time 2026-04-26 12:58
Airport Deer Lake Airport (CYDF)

Arrival

Time 2026-04-26 13:56
Airport Halifax / Stanfield International Airport (CYHZ)
Time Latitude Longitude Altitude Speed Heading
2026-04-26 12:40 49.20970 -57.39837 51 ft 0 kts 317°
2026-04-26 12:50 49.20963 -57.39827 54 ft 4 kts 321°
2026-04-26 12:50 49.20940 -57.39807 47 ft 4 kts 350°
2026-04-26 12:50 49.20917 -57.39810 50 ft 4 kts 39°
2026-04-26 12:51 49.20912 -57.39817 54 ft 1 kts 47°
2026-04-26 12:53 49.20912 -57.39816 54 ft 0 kts 47°
2026-04-26 12:54 49.20922 -57.39800 49 ft 6 kts 47°
2026-04-26 12:54 49.20950 -57.39754 53 ft 12 kts 47°
2026-04-26 12:54 49.21053 -57.39589 54 ft 21 kts 46°
2026-04-26 12:55 49.21107 -57.39419 49 ft 18 kts 116°
2026-04-26 12:55 49.21045 -57.39258 57 ft 18 kts 72°
2026-04-26 12:55 49.21129 -57.39104 56 ft 20 kts 46°
2026-04-26 12:55 49.21199 -57.38993 58 ft 25 kts 46°
2026-04-26 12:56 49.21363 -57.38732 63 ft 25 kts 46°
2026-04-26 12:56 49.21441 -57.38607 64 ft 23 kts 46°
2026-04-26 12:56 49.21587 -57.38374 73 ft 22 kts 46°
2026-04-26 12:56 49.21653 -57.38324 82 ft 11 kts 17°
2026-04-26 12:57 49.21680 -57.38271 80 ft 3 kts 108°
2026-04-26 12:57 49.21663 -57.38258 80 ft 3 kts 192°
2026-04-26 12:57 49.21637 -57.38296 82 ft 17 kts 226°
2026-04-26 12:58 49.20819 -57.39598 53 ft 145 kts 226°
2026-04-26 12:58 49.20035 -57.40821 417 ft 165 kts 225°
2026-04-26 12:58 49.19184 -57.42088 1025 ft 178 kts 225°
2026-04-26 12:58 49.18281 -57.43430 1717 ft 183 kts 224°
2026-04-26 12:59 49.17319 -57.44860 2097 ft 204 kts 224°
2026-04-26 12:59 49.16258 -57.46444 2395 ft 222 kts 226°
2026-04-26 12:59 49.15101 -57.48171 2662 ft 241 kts 229°
2026-04-26 12:59 49.13899 -57.50022 2780 ft 251 kts 232°
2026-04-26 13:00 49.12645 -57.51959 2972 ft 265 kts 230°
2026-04-26 13:00 49.11279 -57.53945 3608 ft 273 kts 229°
2026-04-26 13:00 49.09900 -57.55939 4258 ft 281 kts 229°
2026-04-26 13:00 49.08473 -57.58039 4918 ft 289 kts 229°
2026-04-26 13:01 49.07005 -57.60189 5553 ft 297 kts 229°
2026-04-26 13:01 49.05497 -57.62425 6244 ft 304 kts 229°
2026-04-26 13:01 49.03962 -57.64688 6865 ft 310 kts 228°
2026-04-26 13:01 49.02411 -57.66987 7679 ft 309 kts 228°
2026-04-26 13:02 49.00858 -57.69280 8349 ft 315 kts 228°
2026-04-26 13:02 48.99286 -57.71591 9009 ft 319 kts 228°
2026-04-26 13:02 48.97687 -57.73935 9775 ft 320 kts 227°
2026-04-26 13:02 48.96064 -57.76315 10414 ft 328 kts 228°
2026-04-26 13:03 48.94363 -57.78818 10594 ft 351 kts 228°
2026-04-26 13:03 48.92572 -57.81451 10855 ft 369 kts 228°
2026-04-26 13:03 48.90701 -57.84195 11378 ft 376 kts 228°
2026-04-26 13:03 48.88804 -57.86966 12067 ft 379 kts 228°
2026-04-26 13:04 48.86885 -57.89759 12748 ft 382 kts 228°
2026-04-26 13:04 48.84984 -57.92527 13422 ft 386 kts 228°
2026-04-26 13:04 48.83032 -57.95369 14080 ft 390 kts 228°
2026-04-26 13:04 48.81058 -57.98243 14777 ft 394 kts 228°
2026-04-26 13:05 48.79067 -58.01138 15442 ft 398 kts 228°
2026-04-26 13:05 48.77056 -58.04061 16071 ft 403 kts 229°
2026-04-26 13:05 48.75025 -58.07008 16735 ft 406 kts 229°
2026-04-26 13:05 48.73000 -58.09944 17356 ft 410 kts 229°
2026-04-26 13:06 48.70918 -58.12960 17946 ft 414 kts 229°
2026-04-26 13:06 48.68819 -58.15999 18541 ft 418 kts 229°
2026-04-26 13:06 48.66703 -58.19056 19120 ft 422 kts 229°
2026-04-26 13:06 48.64593 -58.22101 19677 ft 426 kts 229°
2026-04-26 13:07 48.62436 -58.25208 20220 ft 429 kts 229°
2026-04-26 13:07 48.60262 -58.28336 20776 ft 432 kts 229°
2026-04-26 13:07 48.58074 -58.31480 21308 ft 436 kts 229°
2026-04-26 13:07 48.55862 -58.34656 21837 ft 439 kts 229°
2026-04-26 13:08 48.53642 -58.37840 22325 ft 442 kts 229°
2026-04-26 13:08 48.51395 -58.41058 22777 ft 447 kts 229°
2026-04-26 13:08 48.49159 -58.44256 23241 ft 450 kts 228°
2026-04-26 13:08 48.46877 -58.47512 23709 ft 453 kts 228°
2026-04-26 13:09 48.44573 -58.50799 24125 ft 456 kts 228°
2026-04-26 13:09 48.42255 -58.54101 24557 ft 459 kts 228°
2026-04-26 13:09 48.39946 -58.57385 24980 ft 463 kts 228°
2026-04-26 13:09 48.37586 -58.60740 25384 ft 466 kts 227°
2026-04-26 13:10 48.35209 -58.64113 25742 ft 470 kts 227°
2026-04-26 13:10 48.32849 -58.67458 26068 ft 475 kts 227°
2026-04-26 13:10 48.30430 -58.70880 26408 ft 479 kts 227°
2026-04-26 13:10 48.27994 -58.74323 26759 ft 482 kts 227°
2026-04-26 13:11 48.25530 -58.77799 27106 ft 485 kts 226°
2026-04-26 13:11 48.23051 -58.81285 27420 ft 488 kts 226°
2026-04-26 13:11 48.20594 -58.84741 27722 ft 492 kts 226°
2026-04-26 13:11 48.18083 -58.88267 28034 ft 494 kts 226°
2026-04-26 13:12 48.15555 -58.91815 28319 ft 498 kts 226°
2026-04-26 13:12 48.13046 -58.95330 28614 ft 501 kts 226°
2026-04-26 13:12 48.10484 -58.98916 28944 ft 504 kts 225°
2026-04-26 13:12 48.07916 -59.02508 29254 ft 506 kts 225°
2026-04-26 13:13 48.05330 -59.06117 29499 ft 509 kts 225°
2026-04-26 13:13 48.02722 -59.09753 29732 ft 513 kts 225°
2026-04-26 13:13 48.00139 -59.13347 29988 ft 516 kts 225°
2026-04-26 13:13 47.97499 -59.17011 30318 ft 515 kts 225°
2026-04-26 13:14 47.94910 -59.20597 31185 ft 501 kts 225°
2026-04-26 13:14 47.92373 -59.24107 31808 ft 494 kts 225°
2026-04-26 13:14 47.89851 -59.27595 32097 ft 496 kts 225°
2026-04-26 13:14 47.87308 -59.31111 32290 ft 499 kts 225°
2026-04-26 13:15 47.84755 -59.34635 32518 ft 500 kts 224°
2026-04-26 13:15 47.82234 -59.38111 32848 ft 499 kts 224°
2026-04-26 13:15 47.79685 -59.41616 33206 ft 497 kts 224°
2026-04-26 13:15 47.77147 -59.45103 33514 ft 497 kts 224°
2026-04-26 13:16 47.74602 -59.48593 33758 ft 497 kts 224°
2026-04-26 13:16 47.72060 -59.52076 33977 ft 498 kts 224°
2026-04-26 13:16 47.66921 -59.59104 33963 ft 501 kts 224°
2026-04-26 13:17 47.59303 -59.69479 33961 ft 495 kts 224°
2026-04-26 13:18 47.51695 -59.79803 33972 ft 496 kts 224°
2026-04-26 13:19 47.44030 -59.90157 33974 ft 497 kts 224°
2026-04-26 13:19 47.38947 -59.97001 33995 ft 497 kts 224°
2026-04-26 13:20 47.33833 -60.03867 34011 ft 496 kts 224°
2026-04-26 13:20 47.28745 -60.10683 34031 ft 496 kts 224°
2026-04-26 13:21 47.23638 -60.17503 34045 ft 495 kts 224°
2026-04-26 13:21 47.18534 -60.24300 34039 ft 494 kts 224°
2026-04-26 13:22 47.13457 -60.31043 34036 ft 493 kts 224°
2026-04-26 13:22 47.08363 -60.37791 34034 ft 491 kts 224°
2026-04-26 13:23 47.03294 -60.44489 34036 ft 489 kts 224°
2026-04-26 13:23 46.98253 -60.51132 34048 ft 487 kts 224°
2026-04-26 13:24 46.93214 -60.57754 34029 ft 486 kts 224°
2026-04-26 13:24 46.88202 -60.64322 34035 ft 485 kts 224°
2026-04-26 13:25 46.83175 -60.70894 34038 ft 483 kts 224°
2026-04-26 13:25 46.78186 -60.77399 34050 ft 481 kts 224°
2026-04-26 13:26 46.73182 -60.83909 34029 ft 481 kts 224°
2026-04-26 13:26 46.68208 -60.90358 34026 ft 480 kts 224°
2026-04-26 13:27 46.63196 -60.96844 34046 ft 481 kts 224°
2026-04-26 13:27 46.58175 -61.03325 34034 ft 482 kts 224°
2026-04-26 13:28 46.53166 -61.09771 34045 ft 483 kts 223°
2026-04-26 13:28 46.48124 -61.16243 34034 ft 484 kts 223°
2026-04-26 13:29 46.43095 -61.22684 34046 ft 485 kts 223°
2026-04-26 13:29 46.38024 -61.29161 34027 ft 485 kts 223°
2026-04-26 13:30 46.32960 -61.35610 34032 ft 484 kts 223°
2026-04-26 13:30 46.27924 -61.42011 33937 ft 486 kts 223°
2026-04-26 13:30 46.25357 -61.45269 33354 ft 489 kts 223°
2026-04-26 13:31 46.22805 -61.48500 32804 ft 487 kts 223°
2026-04-26 13:31 46.20261 -61.51716 32375 ft 482 kts 223°
2026-04-26 13:31 46.17775 -61.54856 31912 ft 479 kts 223°
2026-04-26 13:31 46.15275 -61.58011 31465 ft 476 kts 223°
2026-04-26 13:32 46.12786 -61.61150 31008 ft 473 kts 222°
2026-04-26 13:32 46.10311 -61.64267 30555 ft 470 kts 222°
2026-04-26 13:32 46.07852 -61.67355 30097 ft 468 kts 222°
2026-04-26 13:32 46.05429 -61.70396 29639 ft 466 kts 221°
2026-04-26 13:33 46.02984 -61.73459 29178 ft 463 kts 222°
2026-04-26 13:33 46.00565 -61.76487 28718 ft 459 kts 222°
2026-04-26 13:33 45.98156 -61.79503 28258 ft 456 kts 223°
2026-04-26 13:33 45.95794 -61.82457 27814 ft 453 kts 223°
2026-04-26 13:34 45.93418 -61.85422 27351 ft 450 kts 223°
2026-04-26 13:34 45.91062 -61.88358 26900 ft 447 kts 224°
2026-04-26 13:34 45.88717 -61.91278 26442 ft 444 kts 224°
2026-04-26 13:34 45.87173 -61.93200 26142 ft 442 kts 224°
2026-04-26 13:35 45.84070 -61.97056 25533 ft 438 kts 224°
2026-04-26 13:35 45.81803 -61.99869 25084 ft 435 kts 225°
2026-04-26 13:35 45.79526 -62.02692 24632 ft 431 kts 225°
2026-04-26 13:35 45.77261 -62.05496 24187 ft 428 kts 225°
2026-04-26 13:36 45.75010 -62.08279 23747 ft 424 kts 226°
2026-04-26 13:36 45.72785 -62.11030 23307 ft 421 kts 226°
2026-04-26 13:36 45.70570 -62.13763 22864 ft 418 kts 226°
2026-04-26 13:36 45.68402 -62.16438 22435 ft 415 kts 226°
2026-04-26 13:37 45.66226 -62.19120 22007 ft 411 kts 226°
2026-04-26 13:37 45.64062 -62.21783 21577 ft 408 kts 226°
2026-04-26 13:37 45.61927 -62.24453 21146 ft 404 kts 229°
2026-04-26 13:37 45.60002 -62.27340 20689 ft 399 kts 233°
2026-04-26 13:38 45.58208 -62.30272 20281 ft 395 kts 235°
2026-04-26 13:38 45.56427 -62.33243 19864 ft 392 kts 235°
2026-04-26 13:38 45.54654 -62.36197 19453 ft 389 kts 234°
2026-04-26 13:38 45.52890 -62.39115 19045 ft 386 kts 234°
2026-04-26 13:39 45.51133 -62.41995 18646 ft 384 kts 234°
2026-04-26 13:39 45.49382 -62.44851 18248 ft 382 kts 234°
2026-04-26 13:39 45.47653 -62.47659 17851 ft 379 kts 234°
2026-04-26 13:39 45.45913 -62.50477 17452 ft 377 kts 234°
2026-04-26 13:40 45.44183 -62.53274 17054 ft 374 kts 234°
2026-04-26 13:40 45.42464 -62.56049 16663 ft 372 kts 234°
2026-04-26 13:40 45.40754 -62.58807 16272 ft 369 kts 234°
2026-04-26 13:40 45.39079 -62.61498 15884 ft 367 kts 233°
2026-04-26 13:41 45.37392 -62.64215 15496 ft 365 kts 233°
2026-04-26 13:41 45.35717 -62.66914 15030 ft 363 kts 233°
2026-04-26 13:41 45.34069 -62.69560 14625 ft 353 kts 233°
2026-04-26 13:41 45.32439 -62.72178 14267 ft 351 kts 233°
2026-04-26 13:42 45.30821 -62.74776 13880 ft 350 kts 233°
2026-04-26 13:42 45.29209 -62.77362 13510 ft 348 kts 233°
2026-04-26 13:42 45.27624 -62.79902 13145 ft 347 kts 233°
2026-04-26 13:42 45.26027 -62.82456 12772 ft 345 kts 233°
2026-04-26 13:43 45.24431 -62.85007 12400 ft 344 kts 233°
2026-04-26 13:43 45.22840 -62.87549 12041 ft 342 kts 233°
2026-04-26 13:43 45.21279 -62.90039 11677 ft 340 kts 232°
2026-04-26 13:43 45.19707 -62.92561 11317 ft 338 kts 234°
2026-04-26 13:44 45.18406 -62.95274 11003 ft 324 kts 250°
2026-04-26 13:44 45.17675 -62.98176 10810 ft 304 kts 260°
2026-04-26 13:44 45.17150 -63.01029 10465 ft 296 kts 262°
2026-04-26 13:44 45.16677 -63.03815 10052 ft 292 kts 263°
2026-04-26 13:45 45.16209 -63.06609 9733 ft 290 kts 263°
2026-04-26 13:45 45.15740 -63.09385 9432 ft 290 kts 263°
2026-04-26 13:45 45.15264 -63.12165 9132 ft 290 kts 263°
2026-04-26 13:45 45.14781 -63.14939 8829 ft 289 kts 262°
2026-04-26 13:46 45.14300 -63.17679 8552 ft 289 kts 262°
2026-04-26 13:46 45.13809 -63.20443 8256 ft 288 kts 262°
2026-04-26 13:46 45.13321 -63.23190 7972 ft 286 kts 262°
2026-04-26 13:46 45.12834 -63.25919 7701 ft 286 kts 262°
2026-04-26 13:47 45.12345 -63.28644 7399 ft 284 kts 262°
2026-04-26 13:47 45.11859 -63.31352 7120 ft 282 kts 262°
2026-04-26 13:47 45.11382 -63.34011 6850 ft 281 kts 262°
2026-04-26 13:47 45.10900 -63.36686 6568 ft 280 kts 262°
2026-04-26 13:48 45.10418 -63.39353 6288 ft 280 kts 262°
2026-04-26 13:48 45.09921 -63.42005 6004 ft 279 kts 260°
2026-04-26 13:48 45.09432 -63.44651 5725 ft 275 kts 263°
2026-04-26 13:48 45.09341 -63.47270 5411 ft 261 kts 289°
2026-04-26 13:49 45.10102 -63.49478 5191 ft 245 kts 317°
2026-04-26 13:49 45.10964 -63.50458 5023 ft 239 kts 335°
2026-04-26 13:49 45.12534 -63.51138 4793 ft 236 kts 355°
2026-04-26 13:49 45.14675 -63.50707 4455 ft 238 kts 22°
2026-04-26 13:50 45.15614 -63.49836 4268 ft 242 kts 41°
2026-04-26 13:50 45.16405 -63.46869 3931 ft 259 kts 88°
2026-04-26 13:50 45.16162 -63.45170 3777 ft 266 kts 106°
2026-04-26 13:50 45.15145 -63.42978 3524 ft 276 kts 131°
2026-04-26 13:51 45.13528 -63.41462 3282 ft 284 kts 157°
2026-04-26 13:51 45.11638 -63.40649 3089 ft 281 kts 163°
2026-04-26 13:51 45.09781 -63.39930 3001 ft 272 kts 163°
2026-04-26 13:51 45.08002 -63.39223 2984 ft 260 kts 163°
2026-04-26 13:52 45.06630 -63.38669 2977 ft 251 kts 162°
2026-04-26 13:52 45.06401 -63.38576 2979 ft 250 kts 162°
2026-04-26 13:52 45.04735 -63.37897 2987 ft 247 kts 162°
2026-04-26 13:52 45.03103 -63.37320 2980 ft 244 kts 176°
2026-04-26 13:53 45.01498 -63.37835 2997 ft 234 kts 218°
2026-04-26 13:53 45.00217 -63.39235 3023 ft 234 kts 221°
2026-04-26 13:53 44.98896 -63.40543 2836 ft 229 kts 219°
2026-04-26 13:53 44.97598 -63.41806 2561 ft 222 kts 219°
2026-04-26 13:54 44.96375 -63.43012 2267 ft 212 kts 219°
2026-04-26 13:54 44.95193 -63.44183 2000 ft 202 kts 219°
2026-04-26 13:54 44.94070 -63.45296 1724 ft 192 kts 219°
2026-04-26 13:55 44.92021 -63.47326 1256 ft 164 kts 219°
2026-04-26 13:55 44.91410 -63.47929 1105 ft 161 kts 220°
2026-04-26 13:55 44.89258 -63.50059 626 ft 168 kts 218°
2026-04-26 13:56 44.88326 -63.50984 462 ft 155 kts 218°
2026-04-26 13:56 44.87523 -63.51784 448 ft 122 kts 215°
2026-04-26 13:56 44.86971 -63.52327 449 ft 45 kts 215°
2026-04-26 13:56 44.86932 -63.52499 449 ft 18 kts 309°
2026-04-26 13:57 44.87033 -63.52543 451 ft 14 kts 350°
2026-04-26 13:57 44.87115 -63.52512 451 ft 13 kts 35°
2026-04-26 13:57 44.87212 -63.52416 451 ft 21 kts 35°
2026-04-26 13:57 44.87352 -63.52278 451 ft 25 kts 34°
2026-04-26 13:58 44.87508 -63.52124 450 ft 28 kts 35°
2026-04-26 13:58 44.87664 -63.51971 451 ft 26 kts 35°
2026-04-26 13:58 44.87809 -63.51826 451 ft 25 kts 35°
2026-04-26 13:58 44.87945 -63.51692 451 ft 23 kts 35°
2026-04-26 13:59 44.88073 -63.51566 451 ft 22 kts 35°
2026-04-26 13:59 44.88200 -63.51440 451 ft 22 kts 35°
2026-04-26 13:59 44.88322 -63.51320 449 ft 21 kts 34°
2026-04-26 14:00 44.88681 -63.51265 449 ft 8 kts 321°
2026-04-26 14:00 44.88688 -63.51314 451 ft 5 kts 263°
2026-04-26 14:00 44.88686 -63.51337 451 ft 0 kts 262°
2026-04-26 14:01 44.88686 -63.51339 451 ft 1 kts 260°
2026-04-26 14:01 44.88682 -63.51365 451 ft 3 kts 260°
2026-04-26 14:01 44.88680 -63.51387 451 ft 1 kts 260°
2026-04-26 14:01 44.88679 -63.51392 450 ft 0 kts 260°
2026-04-26 14:02 44.88679 -63.51393 450 ft 0 kts 260°